Year,Month,Day,Hour,Minute,Value (Times are PST for insolation in W/m^2)
2021,10,04,00,00,0.00
2021,10,04,00,01,0.00
2021,10,04,00,02,0.00
2021,10,04,00,03,0.00
2021,10,04,00,04,0.00
2021,10,04,00,05,0.00
2021,10,04,00,06,0.00
2021,10,04,00,07,0.00
2021,10,04,00,08,0.00
2021,10,04,00,09,0.00
2021,10,04,00,10,0.00
2021,10,04,00,11,0.00
2021,10,04,00,12,0.00
2021,10,04,00,13,0.00
2021,10,04,00,14,0.00
2021,10,04,00,15,0.00
2021,10,04,00,16,0.00
2021,10,04,00,17,0.00
2021,10,04,00,18,0.00
2021,10,04,00,19,0.00
2021,10,04,00,20,0.00
2021,10,04,00,21,0.00
2021,10,04,00,22,0.00
2021,10,04,00,23,0.00
2021,10,04,00,24,0.00
2021,10,04,00,25,0.00
2021,10,04,00,26,0.00
2021,10,04,00,27,0.00
2021,10,04,00,28,0.00
2021,10,04,00,29,0.00
2021,10,04,00,30,0.00
2021,10,04,00,31,0.00
2021,10,04,00,32,0.00
2021,10,04,00,33,0.00
2021,10,04,00,34,0.00
2021,10,04,00,35,0.00
2021,10,04,00,36,0.00
2021,10,04,00,37,0.00
2021,10,04,00,38,0.00
2021,10,04,00,39,0.00
2021,10,04,00,40,0.00
2021,10,04,00,41,0.00
2021,10,04,00,42,0.00
2021,10,04,00,43,0.00
2021,10,04,00,44,0.00
2021,10,04,00,45,0.00
2021,10,04,00,46,0.00
2021,10,04,00,47,0.00
2021,10,04,00,48,0.00
2021,10,04,00,49,0.00
2021,10,04,00,50,0.00
2021,10,04,00,51,0.00
2021,10,04,00,52,0.00
2021,10,04,00,53,0.00
2021,10,04,00,54,0.00
2021,10,04,00,55,0.00
2021,10,04,00,56,0.00
2021,10,04,00,57,0.00
2021,10,04,00,58,0.00
2021,10,04,00,59,0.00
2021,10,04,01,00,0.00
2021,10,04,01,01,0.00
2021,10,04,01,02,0.00
2021,10,04,01,03,0.00
2021,10,04,01,04,0.00
2021,10,04,01,05,0.00
2021,10,04,01,06,0.00
2021,10,04,01,07,0.00
2021,10,04,01,08,0.00
2021,10,04,01,09,0.00
2021,10,04,01,10,0.00
2021,10,04,01,11,0.00
2021,10,04,01,12,0.00
2021,10,04,01,13,0.00
2021,10,04,01,14,0.00
2021,10,04,01,15,0.00
2021,10,04,01,16,0.00
2021,10,04,01,17,0.00
2021,10,04,01,18,0.00
2021,10,04,01,19,0.00
2021,10,04,01,20,0.00
2021,10,04,01,21,0.00
2021,10,04,01,22,0.00
2021,10,04,01,23,0.00
2021,10,04,01,24,0.00
2021,10,04,01,25,0.00
2021,10,04,01,26,0.00
2021,10,04,01,27,0.00
2021,10,04,01,28,0.00
2021,10,04,01,29,0.00
2021,10,04,01,30,0.00
2021,10,04,01,31,0.00
2021,10,04,01,32,0.00
2021,10,04,01,33,0.00
2021,10,04,01,34,0.00
2021,10,04,01,35,0.00
2021,10,04,01,36,0.00
2021,10,04,01,37,0.00
2021,10,04,01,38,0.00
2021,10,04,01,39,0.00
2021,10,04,01,40,0.00
2021,10,04,01,41,0.00
2021,10,04,01,42,0.00
2021,10,04,01,43,0.00
2021,10,04,01,44,0.00
2021,10,04,01,45,0.00
2021,10,04,01,46,0.00
2021,10,04,01,47,0.00
2021,10,04,01,48,0.00
2021,10,04,01,49,0.00
2021,10,04,01,50,0.00
2021,10,04,01,51,0.00
2021,10,04,01,52,0.00
2021,10,04,01,53,0.00
2021,10,04,01,54,0.00
2021,10,04,01,55,0.00
2021,10,04,01,56,0.00
2021,10,04,01,57,0.00
2021,10,04,01,58,0.00
2021,10,04,01,59,0.00
2021,10,04,02,00,0.00
2021,10,04,02,01,0.00
2021,10,04,02,02,0.00
2021,10,04,02,03,0.00
2021,10,04,02,04,0.00
2021,10,04,02,05,0.00
2021,10,04,02,06,0.00
2021,10,04,02,07,0.00
2021,10,04,02,08,0.00
2021,10,04,02,09,0.00
2021,10,04,02,10,0.00
2021,10,04,02,11,0.00
2021,10,04,02,12,0.00
2021,10,04,02,13,0.00
2021,10,04,02,14,0.00
2021,10,04,02,15,0.00
2021,10,04,02,16,0.00
2021,10,04,02,17,0.00
2021,10,04,02,18,0.00
2021,10,04,02,19,0.00
2021,10,04,02,20,0.00
2021,10,04,02,21,0.00
2021,10,04,02,22,0.00
2021,10,04,02,23,0.00
2021,10,04,02,24,0.00
2021,10,04,02,25,0.00
2021,10,04,02,26,0.00
2021,10,04,02,27,0.00
2021,10,04,02,28,0.00
2021,10,04,02,29,0.00
2021,10,04,02,30,0.00
2021,10,04,02,31,0.00
2021,10,04,02,32,0.00
2021,10,04,02,33,0.00
2021,10,04,02,34,0.00
2021,10,04,02,35,0.00
2021,10,04,02,36,0.00
2021,10,04,02,37,0.00
2021,10,04,02,38,0.00
2021,10,04,02,39,0.00
2021,10,04,02,40,0.00
2021,10,04,02,41,0.00
2021,10,04,02,42,0.00
2021,10,04,02,43,0.00
2021,10,04,02,44,0.00
2021,10,04,02,45,0.00
2021,10,04,02,46,0.00
2021,10,04,02,47,0.00
2021,10,04,02,48,0.00
2021,10,04,02,49,0.00
2021,10,04,02,50,0.00
2021,10,04,02,51,0.00
2021,10,04,02,52,0.00
2021,10,04,02,53,0.00
2021,10,04,02,54,0.00
2021,10,04,02,55,0.00
2021,10,04,02,56,0.00
2021,10,04,02,57,0.00
2021,10,04,02,58,0.00
2021,10,04,02,59,0.00
2021,10,04,03,00,0.00
2021,10,04,03,01,0.00
2021,10,04,03,02,0.00
2021,10,04,03,03,0.00
2021,10,04,03,04,0.00
2021,10,04,03,05,0.00
2021,10,04,03,06,0.00
2021,10,04,03,07,0.00
2021,10,04,03,08,0.00
2021,10,04,03,09,0.00
2021,10,04,03,10,0.00
2021,10,04,03,11,0.00
2021,10,04,03,12,0.00
2021,10,04,03,13,0.00
2021,10,04,03,14,0.00
2021,10,04,03,15,0.00
2021,10,04,03,16,0.00
2021,10,04,03,17,0.00
2021,10,04,03,18,0.00
2021,10,04,03,19,0.00
2021,10,04,03,20,0.00
2021,10,04,03,21,0.00
2021,10,04,03,22,0.00
2021,10,04,03,23,0.00
2021,10,04,03,24,0.00
2021,10,04,03,25,0.00
2021,10,04,03,26,0.00
2021,10,04,03,27,0.00
2021,10,04,03,28,0.00
2021,10,04,03,29,0.00
2021,10,04,03,30,0.00
2021,10,04,03,31,0.00
2021,10,04,03,32,0.00
2021,10,04,03,33,0.00
2021,10,04,03,34,0.00
2021,10,04,03,35,0.00
2021,10,04,03,36,0.00
2021,10,04,03,37,0.00
2021,10,04,03,38,0.00
2021,10,04,03,39,0.00
2021,10,04,03,40,0.00
2021,10,04,03,41,0.00
2021,10,04,03,42,0.00
2021,10,04,03,43,0.00
2021,10,04,03,44,0.00
2021,10,04,03,45,0.00
2021,10,04,03,46,0.00
2021,10,04,03,47,0.00
2021,10,04,03,48,0.00
2021,10,04,03,49,0.00
2021,10,04,03,50,0.00
2021,10,04,03,51,0.00
2021,10,04,03,52,0.00
2021,10,04,03,53,0.00
2021,10,04,03,54,0.00
2021,10,04,03,55,0.00
2021,10,04,03,56,0.00
2021,10,04,03,57,0.00
2021,10,04,03,58,0.00
2021,10,04,03,59,0.00
2021,10,04,04,00,0.00
2021,10,04,04,01,0.00
2021,10,04,04,02,0.00
2021,10,04,04,03,0.00
2021,10,04,04,04,0.00
2021,10,04,04,05,0.00
2021,10,04,04,06,0.00
2021,10,04,04,07,0.00
2021,10,04,04,08,0.00
2021,10,04,04,09,0.00
2021,10,04,04,10,0.00
2021,10,04,04,11,0.00
2021,10,04,04,12,0.00
2021,10,04,04,13,0.00
2021,10,04,04,14,0.00
2021,10,04,04,15,0.00
2021,10,04,04,16,0.00
2021,10,04,04,17,0.00
2021,10,04,04,18,0.00
2021,10,04,04,19,0.00
2021,10,04,04,20,0.00
2021,10,04,04,21,0.00
2021,10,04,04,22,0.00
2021,10,04,04,23,0.00
2021,10,04,04,24,0.00
2021,10,04,04,25,0.00
2021,10,04,04,26,0.00
2021,10,04,04,27,0.00
2021,10,04,04,28,0.00
2021,10,04,04,29,0.00
2021,10,04,04,30,0.00
2021,10,04,04,31,0.00
2021,10,04,04,32,0.00
2021,10,04,04,33,0.00
2021,10,04,04,34,0.00
2021,10,04,04,35,0.00
2021,10,04,04,36,0.00
2021,10,04,04,37,0.00
2021,10,04,04,38,0.00
2021,10,04,04,39,0.00
2021,10,04,04,40,0.00
2021,10,04,04,41,0.00
2021,10,04,04,42,0.00
2021,10,04,04,43,0.00
2021,10,04,04,44,0.00
2021,10,04,04,45,0.00
2021,10,04,04,46,0.00
2021,10,04,04,47,0.00
2021,10,04,04,48,0.00
2021,10,04,04,49,0.00
2021,10,04,04,50,0.00
2021,10,04,04,51,0.00
2021,10,04,04,52,0.00
2021,10,04,04,53,0.00
2021,10,04,04,54,0.00
2021,10,04,04,55,0.00
2021,10,04,04,56,0.00
2021,10,04,04,57,0.00
2021,10,04,04,58,0.00
2021,10,04,04,59,0.00
2021,10,04,05,00,0.00
2021,10,04,05,01,0.00
2021,10,04,05,02,0.00
2021,10,04,05,03,0.00
2021,10,04,05,04,0.00
2021,10,04,05,05,0.00
2021,10,04,05,06,0.00
2021,10,04,05,07,0.00
2021,10,04,05,08,0.00
2021,10,04,05,09,0.00
2021,10,04,05,10,0.00
2021,10,04,05,11,0.00
2021,10,04,05,12,0.00
2021,10,04,05,13,0.00
2021,10,04,05,14,0.00
2021,10,04,05,15,0.00
2021,10,04,05,16,0.00
2021,10,04,05,17,0.00
2021,10,04,05,18,0.00
2021,10,04,05,19,0.00
2021,10,04,05,20,0.00
2021,10,04,05,21,0.00
2021,10,04,05,22,0.00
2021,10,04,05,23,0.00
2021,10,04,05,24,0.00
2021,10,04,05,25,0.00
2021,10,04,05,26,0.00
2021,10,04,05,27,0.00
2021,10,04,05,28,0.00
2021,10,04,05,29,0.00
2021,10,04,05,30,0.00
2021,10,04,05,31,0.00
2021,10,04,05,32,0.00
2021,10,04,05,33,0.00
2021,10,04,05,34,0.00
2021,10,04,05,35,0.00
2021,10,04,05,36,0.00
2021,10,04,05,37,0.00
2021,10,04,05,38,0.00
2021,10,04,05,39,0.00
2021,10,04,05,40,0.00
2021,10,04,05,41,0.00
2021,10,04,05,42,0.00
2021,10,04,05,43,0.00
2021,10,04,05,44,0.00
2021,10,04,05,45,0.00
2021,10,04,05,46,0.00
2021,10,04,05,47,0.00
2021,10,04,05,48,0.00
2021,10,04,05,49,0.00
2021,10,04,05,50,0.00
2021,10,04,05,51,0.00
2021,10,04,05,52,0.00
2021,10,04,05,53,0.00
2021,10,04,05,54,0.00
2021,10,04,05,55,0.00
2021,10,04,05,56,0.00
2021,10,04,05,57,0.00
2021,10,04,05,58,0.00
2021,10,04,05,59,0.00
2021,10,04,06,00,0.00
2021,10,04,06,01,0.00
2021,10,04,06,02,0.00
2021,10,04,06,03,0.00
2021,10,04,06,04,0.00
2021,10,04,06,05,0.00
2021,10,04,12,02,40.00
2021,10,04,12,03,40.00
2021,10,04,12,04,39.70
2021,10,04,12,05,39.00
2021,10,04,12,06,39.00
2021,10,04,12,07,54.00
2021,10,04,12,08,96.80
2021,10,04,12,09,90.60
2021,10,04,12,10,46.00
2021,10,04,12,11,41.70
2021,10,04,12,12,40.00
2021,10,04,12,13,39.60
2021,10,04,12,14,40.40
2021,10,04,12,15,47.30
2021,10,04,12,16,44.90
2021,10,04,12,17,42.00
2021,10,04,12,18,42.00
2021,10,04,12,19,39.00
2021,10,04,12,20,38.50
2021,10,04,12,21,37.00
2021,10,04,12,22,37.80
2021,10,04,12,23,39.00
2021,10,04,12,24,39.00
2021,10,04,12,25,39.00
2021,10,04,12,26,39.00
2021,10,04,12,27,39.00
2021,10,04,12,28,39.00
2021,10,04,12,29,39.30
2021,10,04,12,30,40.00
2021,10,04,12,31,45.00
2021,10,04,12,32,58.60
2021,10,04,12,33,61.70
2021,10,04,12,34,49.20
2021,10,04,12,35,40.80
2021,10,04,12,36,40.00
2021,10,04,12,37,40.00
2021,10,04,12,38,40.00
2021,10,04,12,39,40.00
2021,10,04,12,40,41.00
2021,10,04,12,41,42.00
2021,10,04,12,42,43.40
2021,10,04,12,43,55.50
2021,10,04,12,44,55.40
2021,10,04,12,45,39.70
2021,10,04,12,46,44.70
2021,10,04,12,47,47.60
2021,10,04,12,48,52.00
2021,10,04,12,49,72.40
2021,10,04,12,50,114.00
2021,10,04,12,51,122.60
2021,10,04,12,52,188.20
2021,10,04,12,53,254.40
2021,10,04,12,54,257.00
2021,10,04,12,55,203.30
2021,10,04,12,56,61.10
2021,10,04,12,57,46.20
2021,10,04,12,58,28.30
2021,10,04,12,59,50.50
2021,10,04,13,00,69.40
2021,10,04,13,01,86.50
2021,10,04,13,02,128.10
2021,10,04,13,03,136.00
2021,10,04,13,04,119.90
2021,10,04,13,05,103.70
2021,10,04,13,06,92.40
2021,10,04,13,07,90.60
2021,10,04,13,08,96.10
2021,10,04,13,09,98.00
2021,10,04,13,10,105.00
2021,10,04,13,11,253.00
2021,10,04,13,12,253.00
2021,10,04,13,13,342.40
2021,10,04,13,14,465.00
2021,10,04,13,15,412.10
2021,10,04,13,16,420.20
2021,10,04,13,17,351.60
2021,10,04,13,18,329.00
2021,10,04,13,19,448.00
2021,10,04,13,20,408.70
2021,10,04,13,21,255.50
2021,10,04,13,22,318.00
2021,10,04,13,23,318.00
2021,10,04,13,24,159.10
2021,10,04,13,25,58.40
2021,10,04,13,26,95.60
2021,10,04,13,27,75.80
2021,10,04,13,28,107.00
2021,10,04,13,29,151.90
2021,10,04,13,30,133.70
2021,10,04,13,31,82.80
2021,10,04,13,32,86.40
2021,10,04,13,33,86.10
2021,10,04,13,34,77.30
2021,10,04,13,35,70.00
2021,10,04,13,36,71.50
2021,10,04,13,37,65.00
2021,10,04,13,38,65.00
2021,10,04,13,39,62.30
2021,10,04,13,40,46.00
2021,10,04,13,41,32.40
2021,10,04,13,42,57.20
2021,10,04,13,43,75.10
2021,10,04,13,44,68.00
2021,10,04,13,45,64.00
2021,10,04,13,46,96.50
2021,10,04,13,47,133.70
2021,10,04,13,48,100.40
2021,10,04,13,49,66.00
2021,10,04,13,50,77.80
2021,10,04,13,51,98.50
2021,10,04,13,52,134.30
2021,10,04,13,53,149.00
2021,10,04,13,54,192.40
2021,10,04,13,55,225.00
2021,10,04,13,56,207.20
2021,10,04,13,57,232.00
2021,10,04,13,58,325.40
2021,10,04,13,59,334.10
2021,10,04,14,00,264.00
2021,10,04,14,01,198.30
2021,10,04,14,02,136.80
2021,10,04,14,03,135.00
2021,10,04,14,04,114.70
2021,10,04,14,05,118.50
2021,10,04,14,06,180.00
2021,10,04,14,07,207.30
2021,10,04,14,08,167.00
2021,10,04,14,09,149.80
2021,10,04,14,10,155.50
2021,10,04,14,11,306.20
2021,10,04,14,12,352.00
2021,10,04,14,13,397.80
2021,10,04,14,14,494.30
2021,10,04,14,15,490.40
2021,10,04,14,16,487.70
2021,10,04,14,17,485.50
2021,10,04,14,18,483.30
2021,10,04,14,19,483.10
2021,10,04,14,20,484.70
2021,10,04,14,21,482.70
2021,10,04,14,22,482.00
2021,10,04,14,23,482.00
2021,10,04,14,24,482.00
2021,10,04,14,25,482.00
2021,10,04,14,26,482.00
2021,10,04,14,27,478.40
2021,10,04,14,28,474.80
2021,10,04,14,29,473.40
2021,10,04,14,30,471.90
2021,10,04,14,31,464.00
2021,10,04,14,32,286.10
2021,10,04,14,33,78.50
2021,10,04,14,34,53.00
2021,10,04,14,35,387.60
2021,10,04,14,36,463.40
2021,10,04,14,37,455.00
2021,10,04,14,38,455.00
2021,10,04,14,39,459.50
2021,10,04,14,40,466.10
2021,10,04,14,41,464.00
2021,10,04,14,42,464.00
2021,10,04,14,43,461.70
2021,10,04,14,44,455.80
2021,10,04,14,45,453.00
2021,10,04,14,46,444.70
2021,10,04,14,47,452.00
2021,10,04,14,48,442.20
2021,10,04,14,49,420.00
2021,10,04,14,50,423.60
2021,10,04,14,51,438.00
2021,10,04,14,52,439.40
2021,10,04,14,53,439.00
2021,10,04,14,54,438.60
2021,10,04,14,55,436.00
2021,10,04,14,56,435.40
2021,10,04,14,57,433.10
2021,10,04,14,58,431.50
2021,10,04,14,59,429.70
2021,10,04,15,00,427.50
2021,10,04,15,01,425.20
2021,10,04,15,02,425.00
2021,10,04,15,03,423.70
2021,10,04,15,04,421.50
2021,10,04,15,05,416.60
2021,10,04,15,06,414.30
2021,10,04,15,07,416.20
2021,10,04,15,08,411.60
2021,10,04,15,09,412.30
2021,10,04,15,10,385.70
2021,10,04,15,11,399.80
2021,10,04,15,12,405.80
2021,10,04,15,13,398.10
2021,10,04,15,14,403.00
2021,10,04,15,15,402.00
2021,10,04,15,16,394.00
2021,10,04,15,17,390.00
2021,10,04,15,18,390.00
2021,10,04,15,19,138.20
2021,10,04,15,20,87.80
2021,10,04,15,21,71.70
2021,10,04,15,22,69.20
2021,10,04,15,23,68.80
2021,10,04,15,24,52.70
2021,10,04,15,25,47.00
2021,10,04,15,26,46.20
2021,10,04,15,27,44.30
2021,10,04,15,28,43.70
2021,10,04,15,29,38.70
2021,10,04,15,30,35.70
2021,10,04,15,31,46.50
2021,10,04,15,32,60.70
2021,10,04,15,33,58.50
2021,10,04,15,34,50.10
2021,10,04,15,35,49.00
2021,10,04,15,36,48.90
2021,10,04,15,37,47.50
2021,10,04,15,38,51.70
2021,10,04,15,39,51.70
2021,10,04,15,40,47.00
2021,10,04,15,41,45.30
2021,10,04,15,42,42.70
2021,10,04,15,43,43.50
2021,10,04,15,44,46.60
2021,10,04,15,45,47.30
2021,10,04,15,46,51.30
2021,10,04,15,47,43.50
2021,10,04,15,48,41.30
2021,10,04,15,49,41.00
2021,10,04,15,50,32.50
2021,10,04,15,51,36.90
2021,10,04,15,52,42.00
2021,10,04,15,53,48.40
2021,10,04,15,54,50.60
2021,10,04,15,55,47.00
2021,10,04,15,56,49.10
2021,10,04,15,57,57.30
2021,10,04,15,58,56.50
2021,10,04,15,59,46.50
2021,10,04,16,00,41.10
2021,10,04,16,01,35.90
2021,10,04,16,02,33.30
2021,10,04,16,03,38.00
2021,10,04,16,04,45.80
2021,10,04,16,05,53.50
2021,10,04,16,06,63.00
2021,10,04,16,07,93.00
2021,10,04,16,08,160.00
2021,10,04,16,09,163.10
2021,10,04,16,10,162.30
2021,10,04,16,11,135.30
2021,10,04,16,12,110.90
2021,10,04,16,13,83.90
2021,10,04,16,14,81.70
2021,10,04,16,15,55.50
2021,10,04,16,16,57.30
2021,10,04,16,17,61.50
2021,10,04,16,18,62.00
2021,10,04,16,19,57.00
2021,10,04,16,20,66.00
2021,10,04,16,21,58.60
2021,10,04,16,22,56.50
2021,10,04,16,23,55.50
2021,10,04,16,24,46.50
2021,10,04,16,25,50.50
2021,10,04,16,26,53.00
2021,10,04,16,27,47.80
2021,10,04,16,28,47.00
2021,10,04,16,29,47.70
2021,10,04,16,30,51.00
2021,10,04,16,31,49.50
2021,10,04,16,32,45.60
2021,10,04,16,33,45.80
2021,10,04,16,34,49.70
2021,10,04,16,35,51.00
2021,10,04,16,36,47.40
2021,10,04,16,37,50.80
2021,10,04,16,38,49.00
2021,10,04,16,39,48.00
2021,10,04,16,40,44.40
2021,10,04,16,41,41.00
2021,10,04,16,42,39.40
2021,10,04,16,43,39.70
2021,10,04,16,44,40.00
2021,10,04,16,45,39.00
2021,10,04,16,46,37.00
2021,10,04,16,47,36.50
2021,10,04,16,48,35.00
2021,10,04,16,49,36.00
2021,10,04,16,50,37.00
2021,10,04,16,51,37.00
2021,10,04,16,52,38.50
2021,10,04,16,53,41.60
2021,10,04,16,54,42.60
2021,10,04,16,55,49.80
2021,10,04,16,56,52.40
2021,10,04,16,57,48.10
2021,10,04,16,58,42.00
2021,10,04,16,59,40.00
2021,10,04,17,00,37.80
2021,10,04,17,01,37.00
2021,10,04,17,02,35.20
2021,10,04,17,03,35.30
2021,10,04,17,04,37.00
2021,10,04,17,05,37.70
2021,10,04,17,06,38.10
2021,10,04,17,07,35.90
2021,10,04,17,08,33.70
2021,10,04,17,09,33.00
2021,10,04,17,10,32.10
2021,10,04,17,11,28.10
2021,10,04,17,12,25.80
2021,10,04,17,13,25.00
2021,10,04,17,14,25.00
2021,10,04,17,15,25.00
2021,10,04,17,16,25.00
2021,10,04,17,17,23.60
2021,10,04,17,18,24.50
2021,10,04,17,19,25.00
2021,10,04,17,20,26.00
2021,10,04,17,21,26.00
2021,10,04,17,22,26.00
2021,10,04,17,23,26.00
2021,10,04,17,24,27.00
2021,10,04,17,25,28.00
2021,10,04,17,26,28.00
2021,10,04,17,27,29.60
2021,10,04,17,28,26.20
2021,10,04,17,29,25.90
2021,10,04,17,30,25.00
2021,10,04,17,31,25.00
2021,10,04,17,32,25.00
2021,10,04,17,33,25.00
2021,10,04,17,34,23.60
2021,10,04,17,35,21.50
2021,10,04,17,36,21.00
2021,10,04,17,37,19.00
2021,10,04,17,38,19.00
2021,10,04,17,39,19.00
2021,10,04,17,40,19.00
2021,10,04,17,41,19.00
2021,10,04,17,42,20.20
2021,10,04,17,43,21.00
2021,10,04,17,44,22.60
2021,10,04,17,45,23.00
2021,10,04,17,46,23.00
2021,10,04,17,47,23.00
2021,10,04,17,48,22.30
2021,10,04,17,49,21.00
2021,10,04,17,50,21.00
2021,10,04,17,51,21.00
2021,10,04,17,52,21.00
2021,10,04,17,53,21.00
2021,10,04,17,54,19.10
2021,10,04,17,55,19.00
2021,10,04,17,56,18.80
2021,10,04,17,57,17.30
2021,10,04,17,58,16.00
2021,10,04,17,59,14.80
2021,10,04,18,00,14.00
2021,10,04,18,01,14.00
2021,10,04,18,02,14.00
2021,10,04,18,03,14.00
2021,10,04,18,04,13.60
2021,10,04,18,05,12.00
2021,10,04,18,06,12.00
2021,10,04,18,07,12.00
2021,10,04,18,08,12.00
2021,10,04,18,09,13.50
2021,10,04,18,10,14.00
2021,10,04,18,11,15.90
2021,10,04,18,12,15.70
2021,10,04,18,13,14.00
2021,10,04,18,14,13.20
2021,10,04,18,15,11.50
2021,10,04,18,16,9.90
2021,10,04,18,17,9.00
2021,10,04,18,18,7.50
2021,10,04,18,19,7.00
2021,10,04,18,20,5.00
2021,10,04,18,21,5.00
2021,10,04,18,22,5.00
2021,10,04,18,23,5.00
2021,10,04,18,24,5.00
2021,10,04,18,25,5.00
2021,10,04,18,26,5.00
2021,10,04,18,27,5.00
2021,10,04,18,28,0.50
2021,10,04,18,29,0.00
2021,10,04,18,30,0.00
2021,10,04,18,31,0.00
2021,10,04,18,32,0.00
2021,10,04,18,33,0.00
2021,10,04,18,34,0.00
2021,10,04,18,35,0.00
2021,10,04,18,36,0.00
2021,10,04,18,37,0.00
2021,10,04,18,38,0.00
2021,10,04,18,39,0.00
2021,10,04,18,40,0.00
2021,10,04,18,41,0.00
2021,10,04,18,42,0.00
2021,10,04,18,43,0.00
2021,10,04,18,44,0.00
2021,10,04,18,45,0.00
2021,10,04,18,46,0.00
2021,10,04,18,47,0.00
2021,10,04,18,48,0.00
2021,10,04,18,49,0.00
2021,10,04,18,50,0.00
2021,10,04,18,51,0.00
2021,10,04,18,52,0.00
2021,10,04,18,53,0.00
2021,10,04,18,54,0.00
2021,10,04,18,55,0.00
2021,10,04,18,56,0.00
2021,10,04,18,57,0.00
2021,10,04,18,58,0.00
2021,10,04,18,59,0.00
2021,10,04,19,00,0.00
2021,10,04,19,01,0.00
2021,10,04,19,02,0.00
2021,10,04,19,03,0.00
2021,10,04,19,04,0.00
2021,10,04,19,05,0.00
2021,10,04,19,06,0.00
2021,10,04,19,07,0.00
2021,10,04,19,08,0.00
2021,10,04,19,09,0.00
2021,10,04,19,10,0.00
2021,10,04,19,11,0.00
2021,10,04,19,12,0.00
2021,10,04,19,13,0.00
2021,10,04,19,14,0.00
2021,10,04,19,15,0.00
2021,10,04,19,16,0.00
2021,10,04,19,17,0.00
2021,10,04,19,18,0.00
2021,10,04,19,19,0.00
2021,10,04,19,20,0.00
2021,10,04,19,21,0.00
2021,10,04,19,22,0.00
2021,10,04,19,23,0.00
2021,10,04,19,24,0.00
2021,10,04,19,25,0.00
2021,10,04,19,26,0.00
2021,10,04,19,27,0.00
2021,10,04,19,28,0.00
2021,10,04,19,29,0.00
2021,10,04,19,30,0.00
2021,10,04,19,31,0.00
2021,10,04,19,32,0.00
2021,10,04,19,33,0.00
2021,10,04,19,34,0.00
2021,10,04,19,35,0.00
2021,10,04,19,36,0.00
2021,10,04,19,37,0.00
2021,10,04,19,38,0.00
2021,10,04,19,39,0.00
2021,10,04,19,40,0.00
2021,10,04,19,41,0.00
2021,10,04,19,42,0.00
2021,10,04,19,43,0.00
2021,10,04,19,44,0.00
2021,10,04,19,45,0.00
2021,10,04,19,46,0.00
2021,10,04,19,47,0.00
2021,10,04,19,48,0.00
2021,10,04,19,49,0.00
2021,10,04,19,50,0.00
2021,10,04,19,51,0.00
2021,10,04,19,52,0.00
2021,10,04,19,53,0.00
2021,10,04,19,54,0.00
2021,10,04,19,55,0.00
2021,10,04,19,56,0.00
2021,10,04,19,57,0.00
2021,10,04,19,58,0.00
2021,10,04,19,59,0.00
2021,10,04,20,00,0.00
2021,10,04,20,01,0.00
2021,10,04,20,02,0.00
2021,10,04,20,03,0.00
2021,10,04,20,04,0.00
2021,10,04,20,05,0.00
2021,10,04,20,06,0.00
2021,10,04,20,07,0.00
2021,10,04,20,08,0.00
2021,10,04,20,09,0.00
2021,10,04,20,10,0.00
2021,10,04,20,11,0.00
2021,10,04,20,12,0.00
2021,10,04,20,13,0.00
2021,10,04,20,14,0.00
2021,10,04,20,15,0.00
2021,10,04,20,16,0.00
2021,10,04,20,17,0.00
2021,10,04,20,18,0.00
2021,10,04,20,19,0.00
2021,10,04,20,20,0.00
2021,10,04,20,21,0.00
2021,10,04,20,22,0.00
2021,10,04,20,23,0.00
2021,10,04,20,24,0.00
2021,10,04,20,25,0.00
2021,10,04,20,26,0.00
2021,10,04,20,27,0.00
2021,10,04,20,28,0.00
2021,10,04,20,29,0.00
2021,10,04,20,30,0.00
2021,10,04,20,31,0.00
2021,10,04,20,32,0.00
2021,10,04,20,33,0.00
2021,10,04,20,34,0.00
2021,10,04,20,35,0.00
2021,10,04,20,36,0.00
2021,10,04,20,37,0.00
2021,10,04,20,38,0.00
2021,10,04,20,39,0.00
2021,10,04,20,40,0.00
2021,10,04,20,41,0.00
2021,10,04,20,42,0.00
2021,10,04,20,43,0.00
2021,10,04,20,44,0.00
2021,10,04,20,45,0.00
2021,10,04,20,46,0.00
2021,10,04,20,47,0.00
2021,10,04,20,48,0.00
2021,10,04,20,49,0.00
2021,10,04,20,50,0.00
2021,10,04,20,51,0.00
2021,10,04,20,52,0.00
2021,10,04,20,53,0.00
2021,10,04,20,54,0.00
2021,10,04,20,55,0.00
2021,10,04,20,56,0.00
2021,10,04,20,57,0.00
2021,10,04,20,58,0.00
2021,10,04,20,59,0.00
2021,10,04,21,00,0.00
2021,10,04,21,01,0.00
2021,10,04,21,02,0.00
2021,10,04,21,03,0.00
2021,10,04,21,04,0.00
2021,10,04,21,05,0.00
2021,10,04,21,06,0.00
2021,10,04,21,07,0.00
2021,10,04,21,08,0.00
2021,10,04,21,09,0.00
2021,10,04,21,10,0.00
2021,10,04,21,11,0.00
2021,10,04,21,12,0.00
2021,10,04,21,13,0.00
2021,10,04,21,14,0.00
2021,10,04,21,15,0.00
2021,10,04,21,16,0.00
2021,10,04,21,17,0.00
2021,10,04,21,18,0.00
2021,10,04,21,19,0.00
2021,10,04,21,20,0.00
2021,10,04,21,21,0.00
2021,10,04,21,22,0.00
2021,10,04,21,23,0.00
2021,10,04,21,24,0.00
2021,10,04,21,25,0.00
2021,10,04,21,26,0.00
2021,10,04,21,27,0.00
2021,10,04,21,28,0.00
2021,10,04,21,29,0.00
2021,10,04,21,30,0.00
2021,10,04,21,31,0.00
2021,10,04,21,32,0.00
2021,10,04,21,33,0.00
2021,10,04,21,34,0.00
2021,10,04,21,35,0.00
2021,10,04,21,36,0.00
2021,10,04,21,37,0.00
2021,10,04,21,38,0.00
2021,10,04,21,39,0.00
2021,10,04,21,40,0.00
2021,10,04,21,41,0.00
2021,10,04,21,42,0.00
2021,10,04,21,43,0.00
2021,10,04,21,44,0.00
2021,10,04,21,45,0.00
2021,10,04,21,46,0.00
2021,10,04,21,47,0.00
2021,10,04,21,48,0.00
2021,10,04,21,49,0.00
2021,10,04,21,50,0.00
2021,10,04,21,51,0.00
2021,10,04,21,52,0.00
2021,10,04,21,53,0.00
2021,10,04,21,54,0.00
2021,10,04,21,55,0.00
2021,10,04,21,56,0.00
2021,10,04,21,57,0.00
2021,10,04,21,58,0.00
2021,10,04,21,59,0.00
2021,10,04,22,00,0.00
2021,10,04,22,01,0.00
2021,10,04,22,02,0.00
2021,10,04,22,03,0.00
2021,10,04,22,04,0.00
2021,10,04,22,05,0.00
2021,10,04,22,06,0.00
2021,10,04,22,07,0.00
2021,10,04,22,08,0.00
2021,10,04,22,09,0.00
2021,10,04,22,10,0.00
2021,10,04,22,11,0.00
2021,10,04,22,12,0.00
2021,10,04,22,13,0.00
2021,10,04,22,14,0.00
2021,10,04,22,15,0.00
2021,10,04,22,16,0.00
2021,10,04,22,17,0.00
2021,10,04,22,18,0.00
2021,10,04,22,19,0.00
2021,10,04,22,20,0.00
2021,10,04,22,21,0.00
2021,10,04,22,22,0.00
2021,10,04,22,23,0.00
2021,10,04,22,24,0.00
2021,10,04,22,25,0.00
2021,10,04,22,26,0.00
2021,10,04,22,27,0.00
2021,10,04,22,28,0.00
2021,10,04,22,29,0.00
2021,10,04,22,30,0.00
2021,10,04,22,31,0.00
2021,10,04,22,32,0.00
2021,10,04,22,33,0.00
2021,10,04,22,34,0.00
2021,10,04,22,35,0.00
2021,10,04,22,36,0.00
2021,10,04,22,37,0.00
2021,10,04,22,38,0.00
2021,10,04,22,39,0.00
2021,10,04,22,40,0.00
2021,10,04,22,41,0.00
2021,10,04,22,42,0.00
2021,10,04,22,43,0.00
2021,10,04,22,44,0.00
2021,10,04,22,45,0.00
2021,10,04,22,46,0.00
2021,10,04,22,47,0.00
2021,10,04,22,48,0.00
2021,10,04,22,49,0.00
2021,10,04,22,50,0.00
2021,10,04,22,51,0.00
2021,10,04,22,52,0.00
2021,10,04,22,53,0.00
2021,10,04,22,54,0.00
2021,10,04,22,55,0.00
2021,10,04,22,56,0.00
2021,10,04,22,57,0.00
2021,10,04,22,58,0.00
2021,10,04,22,59,0.00
2021,10,04,23,00,0.00
2021,10,04,23,01,0.00
2021,10,04,23,02,0.00
2021,10,04,23,03,0.00
2021,10,04,23,04,0.00
2021,10,04,23,05,0.00
2021,10,04,23,06,0.00
2021,10,04,23,07,0.00
2021,10,04,23,08,0.00
2021,10,04,23,09,0.00
2021,10,04,23,10,0.00
2021,10,04,23,11,0.00
2021,10,04,23,12,0.00
2021,10,04,23,13,0.00
2021,10,04,23,14,0.00
2021,10,04,23,15,0.00
2021,10,04,23,16,0.00
2021,10,04,23,17,0.00
2021,10,04,23,18,0.00
2021,10,04,23,19,0.00
2021,10,04,23,20,0.00
2021,10,04,23,21,0.00
2021,10,04,23,22,0.00
2021,10,04,23,23,0.00
2021,10,04,23,24,0.00
2021,10,04,23,25,0.00
2021,10,04,23,26,0.00
2021,10,04,23,27,0.00
2021,10,04,23,28,0.00
2021,10,04,23,29,0.00
2021,10,04,23,30,0.00
2021,10,04,23,31,0.00
2021,10,04,23,32,0.00
2021,10,04,23,33,0.00
2021,10,04,23,34,0.00
2021,10,04,23,35,0.00
2021,10,04,23,36,0.00
2021,10,04,23,37,0.00
2021,10,04,23,38,0.00
2021,10,04,23,39,0.00
2021,10,04,23,40,0.00